Dilworth, MN

11:16 AM CDT on October 01, 2016 (GMT -0500)
Moorhead Municipal

Weather History for KJKJ - March, 2013

Change the Weather History Date:

Wednesday, March 6, 2013

  Actual Average (KFAR) Record (KFAR)
Temperature  
Mean Temperature 16 °F 23 °F  
Max Temperature 23 °F 31 °F 66 °F (2016)
Min Temperature 10 °F 15 °F -20 °F (1884)
Degree Days  
Heating Degree Days 48 42  
Month to date heating degree days 261  
Since 1 July heating degree days 6939  
Cooling Degree Days 0 0  
Month to date cooling degree days 0  
Year to date cooling degree days 0  
Moisture  
Dew Point 16 °F    
Average Humidity 92    
Maximum Humidity 100    
Minimum Humidity 74    
Precipitation  
Precipitation 0.00 in 0.04 in 0.51 in (1944)
Month to date precipitation 0.23  
Year to date precipitation 1.54  
Snow  
Snow 0.00 in 0.40 in 4.90 in (1944)
Month to date snowfall 2.2  
Since 1 July snowfall 40.2  
Snow Depth -    
Sea Level Pressure  
Sea Level Pressure 30.38 in    
Wind  
Wind Speed 6 mph (NNE)    
Max Wind Speed 12 mph    
Max Gust Speed -    
Visibility 8 miles    
Events Rain , Snow    
T = Trace of Precipitation, MM = Missing Value Source: NWS Daily Summary

Daily Weather History Graph

Daily Weather History Graph

Search for Another Location

Airport or City:

Trip Planner

Search our weather history database for the weather conditions in past years. The results will help you decide how hot, cold, wet, or windy it might be!

Date:

Astronomy

Mar. 06, 2013 Rise Set
Actual Time 6:56 AM CST 6:19 PM CST
Civil Twilight 6:26 AM CST 6:50 PM CST
Nautical Twilight 5:51 AM CST 7:25 PM CST
Astronomical Twilight 5:15 AM CST 8:00 PM CST
Moon 3:22 AM CST (3/6) 12:47 PM CST (3/6)
Length of Visible Light 12h 24m
Length of Day
11h 23m
Waning Crescent, 29% of the Moon is Illuminated
Mar 6
Waning Crescent
Mar 11
New
Mar 19
First Quarter
Mar 27
Full
Apr 2
Last Quarter

Hourly Weather History & Observations

Time (CST) Temp. Windchill Dew Point Humidity Pressure Visibility Wind Dir Wind Speed Gust Speed Precip Events Conditions
12:15 AM 19.4 °F 7.9 °F 19.4 °F 100% 30.40 in 10.0 mi NNW 10.4 mph - N/A Snow Light Snow
12:34 AM 19.4 °F 7.2 °F 19.4 °F 100% 30.40 in 10.0 mi NNW 11.5 mph - N/A   Overcast
12:55 AM 19.4 °F 8.6 °F 19.4 °F 100% 30.40 in 10.0 mi NNW 9.2 mph - N/A Snow Light Snow
1:15 AM 19.4 °F 7.9 °F 19.4 °F 100% 30.40 in 7.0 mi NNW 10.4 mph - N/A Snow Light Snow
1:34 AM 19.4 °F 7.9 °F 17.6 °F 93% 30.40 in 10.0 mi NNW 10.4 mph - N/A Snow Light Snow
1:55 AM 19.4 °F 8.6 °F 17.6 °F 93% 30.41 in 7.0 mi NNW 9.2 mph - N/A Snow Light Snow
2:15 AM 19.4 °F 8.6 °F 17.6 °F 93% 30.41 in 7.0 mi NNW 9.2 mph - N/A Snow Light Snow
2:34 AM 19.4 °F 8.6 °F 17.6 °F 93% 30.41 in 7.0 mi NNW 9.2 mph - N/A Snow Light Snow
2:55 AM 19.4 °F 9.5 °F 17.6 °F 93% 30.40 in 7.0 mi NNW 8.1 mph - N/A Snow Light Snow
3:15 AM 19.4 °F 9.5 °F 17.6 °F 93% 30.40 in 7.0 mi NNW 8.1 mph - N/A Snow Light Snow
3:34 AM 19.4 °F 10.4 °F 17.6 °F 93% 30.40 in 7.0 mi NNW 6.9 mph - N/A Snow Light Snow
3:55 AM 17.6 °F 8.2 °F 17.6 °F 100% 30.40 in 7.0 mi NNW 6.9 mph - N/A Snow Light Snow
4:14 AM 17.6 °F 8.2 °F 17.6 °F 100% 30.40 in 7.0 mi NNW 6.9 mph - N/A Snow Light Snow
4:35 AM 17.6 °F 9.3 °F 17.6 °F 100% 30.41 in 7.0 mi NNW 5.8 mph - N/A Snow Light Snow
4:55 AM 17.6 °F 9.3 °F 17.6 °F 100% 30.41 in 7.0 mi NNW 5.8 mph - N/A Snow Light Snow
5:14 AM 17.6 °F 9.3 °F 17.6 °F 100% 30.42 in 7.0 mi NNW 5.8 mph - N/A   Overcast
5:35 AM 17.6 °F 9.3 °F 17.6 °F 100% 30.43 in 7.0 mi NNW 5.8 mph - N/A Snow Light Snow
5:55 AM 17.6 °F 9.3 °F 17.6 °F 100% 30.43 in 7.0 mi NNW 5.8 mph - N/A Snow Light Snow
6:14 AM 17.6 °F 9.3 °F 17.6 °F 100% 30.43 in 7.0 mi NNW 5.8 mph - N/A Snow Light Snow
6:35 AM 17.6 °F 9.3 °F 17.6 °F 100% 30.44 in 5.0 mi NNW 5.8 mph - N/A Snow Light Snow
6:55 AM 17.6 °F 10.7 °F 17.6 °F 100% 30.44 in 5.0 mi NNW 4.6 mph - N/A Snow Light Snow
7:14 AM 17.6 °F 9.3 °F 17.6 °F 100% 30.44 in 3.0 mi NNW 5.8 mph - N/A Snow Light Snow
7:35 AM 17.6 °F 10.7 °F 17.6 °F 100% 30.44 in 2.5 mi North 4.6 mph - N/A Snow Light Snow
7:55 AM 17.6 °F 10.7 °F 17.6 °F 100% 30.44 in 2.5 mi North 4.6 mph - N/A Snow Light Snow
8:14 AM 17.6 °F 12.3 °F 17.6 °F 100% 30.44 in 3.0 mi North 3.5 mph - N/A Snow Light Snow
8:35 AM 17.6 °F 12.3 °F 17.6 °F 100% 30.44 in 2.0 mi North 3.5 mph - N/A Snow Light Snow
8:55 AM 17.6 °F 12.3 °F 17.6 °F 100% 30.44 in 2.5 mi North 3.5 mph - N/A Snow Light Snow
9:14 AM 17.6 °F 12.3 °F 17.6 °F 100% 30.44 in 3.0 mi North 3.5 mph - N/A Snow Light Snow
9:35 AM 17.6 °F 12.3 °F 17.6 °F 100% 30.44 in 3.0 mi North 3.5 mph - N/A Snow Light Snow
9:55 AM 19.4 °F 14.3 °F 17.6 °F 93% 30.44 in 1.8 mi NNE 3.5 mph - N/A Snow Light Snow
10:14 AM 19.4 °F 14.3 °F 17.6 °F 93% 30.43 in 3.0 mi NNE 3.5 mph - N/A   Overcast
10:35 AM 19.4 °F 12.8 °F 17.6 °F 93% 30.43 in 5.0 mi NE 4.6 mph - N/A   Overcast
10:55 AM 19.4 °F 12.8 °F 19.4 °F 100% 30.42 in 5.0 mi NNE 4.6 mph - N/A Snow Light Snow
11:14 AM 19.4 °F 14.3 °F 17.6 °F 93% 30.42 in 5.0 mi NNE 3.5 mph - N/A Snow Light Snow
11:35 AM 19.4 °F - 17.6 °F 93% 30.42 in 5.0 mi Calm Calm - N/A Snow Light Snow
11:54 AM 21.2 °F - 19.4 °F 93% 30.42 in 10.0 mi Calm Calm - N/A   Overcast
12:15 PM 21.2 °F - 17.6 °F 86% 30.41 in 7.0 mi Calm Calm - N/A   Overcast
12:35 PM 21.2 °F 16.4 °F 15.8 °F 80% 30.41 in 7.0 mi ENE 3.5 mph - N/A   Overcast
12:54 PM 21.2 °F 14.9 °F 15.8 °F 80% 30.40 in 7.0 mi East 4.6 mph - N/A   Overcast
1:15 PM 21.2 °F - 15.8 °F 80% 30.39 in 7.0 mi Calm Calm - N/A Snow Light Snow
1:35 PM 23.0 °F - 15.8 °F 74% 30.39 in 10.0 mi Calm Calm - N/A   Overcast
1:54 PM 21.2 °F 16.4 °F 15.8 °F 80% 30.38 in 10.0 mi ENE 3.5 mph - N/A Snow Light Snow
2:15 PM 23.0 °F - 15.8 °F 74% 30.37 in 10.0 mi Calm Calm - N/A Snow Light Snow
2:35 PM 23.0 °F - 15.8 °F 74% 30.36 in 10.0 mi Calm Calm - N/A Snow Light Snow
2:54 PM 23.0 °F 18.4 °F 17.6 °F 80% 30.36 in 10.0 mi ENE 3.5 mph - N/A   Overcast
3:15 PM 23.0 °F - 17.6 °F 80% 30.36 in 10.0 mi Calm Calm - N/A   Overcast
3:34 PM 23.0 °F - 17.6 °F 80% 30.36 in 10.0 mi Calm Calm - N/A   Light Freezing Rain
3:55 PM 23.0 °F 17.0 °F 17.6 °F 80% 30.36 in 10.0 mi ESE 4.6 mph - N/A Rain Light Freezing Rain
4:15 PM 21.2 °F 14.9 °F 17.6 °F 86% 30.36 in 10.0 mi East 4.6 mph - N/A   Overcast
4:34 PM 21.2 °F 14.9 °F 17.6 °F 86% 30.35 in 10.0 mi East 4.6 mph - N/A   Overcast
4:55 PM 21.2 °F - 15.8 °F 80% 30.35 in 10.0 mi Calm Calm - N/A   Scattered Clouds
5:15 PM 21.2 °F - 15.8 °F 80% 30.34 in 10.0 mi Calm Calm - N/A   Clear
5:35 PM 21.2 °F - 17.6 °F 86% 30.34 in 10.0 mi Calm Calm - N/A   Clear
5:55 PM 21.2 °F - 15.8 °F 80% 30.33 in 10.0 mi Calm Calm - N/A   Clear
6:14 PM 19.4 °F - 15.8 °F 86% 30.34 in 10.0 mi Calm Calm - N/A   Clear
6:35 PM 19.4 °F - 15.8 °F 86% 30.33 in 10.0 mi Calm Calm - N/A   Clear
6:55 PM 19.4 °F - 15.8 °F 86% 30.33 in 10.0 mi Calm Calm - N/A   Clear
7:14 PM 17.6 °F - 15.8 °F 93% 30.33 in 10.0 mi Calm Calm - N/A   Clear
7:35 PM 15.8 °F 10.2 °F 12.2 °F 86% 30.32 in 10.0 mi East 3.5 mph - N/A   Clear
7:55 PM 15.8 °F 10.2 °F 12.2 °F 86% 30.32 in 10.0 mi East 3.5 mph - N/A   Clear
8:14 PM 15.8 °F - 12.2 °F 86% 30.33 in 10.0 mi Calm Calm - N/A   Clear
8:35 PM 15.8 °F - 14.0 °F 93% 30.33 in 10.0 mi Calm Calm - N/A   Clear
8:55 PM 15.8 °F - 12.2 °F 86% 30.34 in 10.0 mi Calm Calm - N/A   Clear
9:14 PM 14.0 °F 8.2 °F 12.2 °F 93% 30.34 in 10.0 mi SSE 3.5 mph - N/A   Clear
9:35 PM 14.0 °F 8.2 °F 12.2 °F 93% 30.34 in 10.0 mi SE 3.5 mph - N/A   Clear
9:55 PM 14.0 °F 8.2 °F 12.2 °F 93% 30.33 in 10.0 mi East 3.5 mph - N/A   Clear
10:14 PM 12.2 °F 6.1 °F 12.2 °F 100% 30.33 in 10.0 mi ESE 3.5 mph - N/A   Clear
10:35 PM 12.2 °F 4.3 °F 12.2 °F 100% 30.32 in 10.0 mi SE 4.6 mph - N/A   Clear
10:55 PM 10.4 °F 2.2 °F 10.4 °F 100% 30.32 in 10.0 mi SE 4.6 mph - N/A   Clear
11:14 PM 10.4 °F 4.0 °F 10.4 °F 100% 30.31 in 10.0 mi SE 3.5 mph - N/A   Clear
11:35 PM 10.4 °F 4.0 °F 10.4 °F 100% 30.30 in 10.0 mi SE 3.5 mph - N/A   Clear
11:55 PM 10.4 °F 4.0 °F 10.4 °F 100% 30.31 in 10.0 mi SE 3.5 mph - N/A   Clear